Location: Newark
(48.6461°N, 4.3644°W)
Time: 22:47:21
(UTC+00:00)

A-11 Canister half - Pass Details

Date: 01 February 2020
Orbit: 1517 x 1683 km, 47.2° (Epoch: 19 February)

Event Time Altitude Azimuth Distance (km) Brightness Sun altitude
Exits shadow 04:30:54 35° 188° (S) 2,276 9.7 -32.6°
Drops below altitude 10° 04:36:57 10° 153° (SSE) 3,690 11.1 -31.6°
Sets 04:40:15 0° 146° (SE) 4,684 11.8 -31.0°
